Antalya, Turkey

1:07 PM EET on February 12, 2016 (GMT +0200)
Antalya

Weather History for LTAI - January, 2012

Change the Weather History Date:

Sunday, January 29, 2012

  Actual Average Record
Temperature  
Mean Temperature 47 °F -  
Max Temperature 58 °F 59 °F 68 °F (2002)
Min Temperature 36 °F 43 °F 33 °F (1997)
Degree Days  
Heating Degree Days 18    
Moisture  
Dew Point 32 °F    
Average Humidity 58    
Maximum Humidity 76    
Minimum Humidity 28    
Precipitation  
Precipitation 0.00 in 0.25 in - ()
Sea Level Pressure  
Sea Level Pressure 30.05 in    
Wind  
Wind Speed 7 mph ()    
Max Wind Speed 12 mph    
Max Gust Speed -    
Visibility 6.2 miles    
Events      
Averages and records for this station are not official NWS values.
T = Trace of Precipitation, MM = Missing Value Source: Averaged Metar Reports

Daily Weather History Graph

Daily Weather History Graph

Search for Another Location

Airport or City:

Trip Planner

Search our weather history database for the weather conditions in past years. The results will help you decide how hot, cold, wet, or windy it might be!

Date:

Astronomy

Jan. 29, 2012 Rise Set
Actual Time 7:02 AM EET 5:18 PM EET
Civil Twilight 6:34 AM EET 5:45 PM EET
Nautical Twilight 6:03 AM EET 6:17 PM EET
Astronomical Twilight 5:32 AM EET 6:47 PM EET
Moon 9:54 AM EET (1/29) 11:32 PM EET (1/29)
Length of Visible Light 11h 11m
Length of Day
10h 16m
Waxing Crescent, 34% of the Moon is Illuminated
Jan 29
Waxing Crescent
Jan 31
First Quarter
Feb 7
Full
Feb 14
Last Quarter
Feb 22
New

Hourly Weather History & Observations

Time (EET) Temp. Windchill Dew Point Humidity Pressure Visibility Wind Dir Wind Speed Gust Speed Precip Events Conditions
12:20 AM 41.0 °F 36.4 °F 28.4 °F 61% 30.12 in - North 6.9 mph - N/A   Clear
12:50 AM 39.2 °F 32.5 °F 28.4 °F 65% 30.12 in - NNW 10.4 mph - N/A   Clear
1:20 AM 39.2 °F 32.5 °F 28.4 °F 65% 30.12 in - NNW 10.4 mph - N/A   Clear
1:50 AM 39.2 °F 32.5 °F 28.4 °F 65% 30.12 in - NNW 10.4 mph - N/A   Clear
2:00 AM 39 °F - 28 °F 54% 30.11 in 6 mi NNW 10.4 mph - -  
2:20 AM 39.2 °F 33.0 °F 28.4 °F 65% 30.09 in - NNW 9.2 mph - N/A   Clear
2:50 AM 39.2 °F 35.0 °F 28.4 °F 65% 30.09 in - NNW 5.8 mph - N/A   Clear
3:20 AM 37.4 °F 30.8 °F 28.4 °F 70% 30.09 in - North 9.2 mph - N/A   Clear
3:50 AM 37.4 °F 30.8 °F 28.4 °F 70% 30.09 in - North 9.2 mph - N/A   Clear
4:20 AM 37.4 °F 32.1 °F 26.6 °F 65% 30.09 in - NNW 6.9 mph - N/A   Clear
4:50 AM 35.6 °F 29.2 °F 28.4 °F 75% 30.09 in - North 8.1 mph - N/A   Clear
5:20 AM 37.4 °F 32.1 °F 28.4 °F 70% 30.09 in - NNW 6.9 mph - N/A   Clear
5:50 AM 37.4 °F 32.1 °F 28.4 °F 70% 30.09 in - North 6.9 mph - N/A   Clear
6:20 AM 37.4 °F 31.4 °F 28.4 °F 70% 30.06 in - North 8.1 mph - N/A   Clear
6:50 AM 37.4 °F 31.4 °F 28.4 °F 70% 30.09 in 6.2 mi NNW 8.1 mph - N/A   Partly Cloudy
7:20 AM 37.4 °F 32.1 °F 28.4 °F 70% 30.09 in 6.2 mi North 6.9 mph - N/A   Scattered Clouds
7:50 AM 39.2 °F 34.2 °F 28.4 °F 65% 30.09 in 6.2 mi North 6.9 mph - N/A   Scattered Clouds
8:00 AM 39 °F - 29 °F 56% 30.10 in 6 mi North 6.9 mph - -   Partly Cloudy
8:20 AM 41.0 °F 35.8 °F 30.2 °F 65% 30.09 in 6.2 mi North 8.1 mph - N/A   Scattered Clouds
8:50 AM 44.6 °F 39.2 °F 30.2 °F 57% 30.09 in 6.2 mi North 10.4 mph - N/A   Scattered Clouds
9:20 AM 46.4 °F 41.5 °F 28.4 °F 50% 30.09 in 6.2 mi NNW 10.4 mph - N/A   Scattered Clouds
9:50 AM 50.0 °F - 30.2 °F 47% 30.09 in 6.2 mi NNW 11.5 mph - N/A   Scattered Clouds
10:20 AM 51.8 °F - 30.2 °F 44% 30.09 in 6.2 mi NNW 11.5 mph - N/A   Scattered Clouds
10:50 AM 53.6 °F - 28.4 °F 38% 30.06 in 6.2 mi NNW 10.4 mph - N/A   Mostly Cloudy
11:20 AM 55.4 °F - 30.2 °F 38% 30.06 in 6.2 mi NNW 9.2 mph - N/A   Mostly Cloudy
11:50 AM 55.4 °F - 28.4 °F 36% 30.06 in 6.2 mi NNW 5.8 mph - N/A   Mostly Cloudy
12:20 PM 55.4 °F - 30.2 °F 38% 30.04 in 6.2 mi ENE 3.5 mph - N/A   Mostly Cloudy
12:50 PM 57.2 °F - 30.2 °F 36% 30.04 in 6.2 mi NNE 4.6 mph - N/A   Mostly Cloudy
1:20 PM 57.2 °F - 30.2 °F 36% 30.01 in 6.2 mi Variable 3.5 mph - N/A   Mostly Cloudy
1:50 PM 57.2 °F - 33.8 °F 41% 30.01 in 6.2 mi East 4.6 mph - N/A   Mostly Cloudy
2:00 PM 57 °F - 33 °F 28% 30.01 in 6 mi East 4.6 mph - -   Partly Cloudy
2:20 PM 57.2 °F - 32.0 °F 38% 30.01 in 6.2 mi SE 5.8 mph - N/A   Mostly Cloudy
2:50 PM 55.4 °F - 32.0 °F 41% 30.01 in 6.2 mi SE 4.6 mph - N/A   Mostly Cloudy
3:20 PM 55.4 °F - 33.8 °F 44% 30.01 in 6.2 mi SE 5.8 mph - N/A   Mostly Cloudy
3:50 PM 53.6 °F - 35.6 °F 51% 30.01 in 6.2 mi SE 4.6 mph - N/A   Mostly Cloudy
4:20 PM 53.6 °F - 35.6 °F 51% 30.01 in 6.2 mi Variable 2.3 mph - N/A   Mostly Cloudy
4:50 PM 53.6 °F - 35.6 °F 51% 30.01 in 6.2 mi East 2.3 mph - N/A   Mostly Cloudy
5:20 PM 51.8 °F - 35.6 °F 54% 30.01 in 6.2 mi East 2.3 mph - N/A   Mostly Cloudy
5:50 PM 51.8 °F - 37.4 °F 58% 30.01 in 6.2 mi Variable 1.2 mph - N/A   Mostly Cloudy
6:20 PM 50.0 °F - 37.4 °F 62% 30.01 in 6.2 mi North 2.3 mph - N/A   Mostly Cloudy
6:50 PM 50.0 °F - 39.2 °F 66% 30.01 in 6.2 mi NNE 3.5 mph - N/A   Mostly Cloudy
7:20 PM 50.0 °F - 41.0 °F 71% 30.01 in 6.2 mi North 3.5 mph - N/A   Mostly Cloudy
7:50 PM 50.0 °F - 41.0 °F 71% 30.01 in 6.2 mi North 4.6 mph - N/A   Mostly Cloudy
8:00 PM 50 °F - 41 °F 63% 30.01 in 6 mi North 4.6 mph - -   Partly Cloudy
8:20 PM 50.0 °F - 41.0 °F 71% 30.01 in 6.2 mi North 4.6 mph - N/A   Mostly Cloudy
8:50 PM 48.2 °F - 41.0 °F 76% 30.01 in 6.2 mi NNE 4.6 mph - N/A   Mostly Cloudy
9:20 PM 48.2 °F - 41.0 °F 76% 30.01 in 6.2 mi North 5.8 mph - N/A   Mostly Cloudy
9:50 PM 46.4 °F 43.5 °F 39.2 °F 76% 30.01 in 6.2 mi North 5.8 mph - N/A   Mostly Cloudy
10:20 PM 48.2 °F - 35.6 °F 62% 30.01 in 6.2 mi NNW 8.1 mph - N/A   Mostly Cloudy
10:50 PM 48.2 °F - 35.6 °F 62% 30.01 in 6.2 mi North 6.9 mph - N/A   Mostly Cloudy
11:20 PM 46.4 °F 44.3 °F 33.8 °F 62% 30.01 in 6.2 mi WNW 4.6 mph - N/A   Mostly Cloudy
11:50 PM 48.2 °F - 32.0 °F 54% 29.98 in 6.2 mi NW 6.9 mph - N/A   Mostly Cloudy